This demonstration page uses our WeatherBlox Daily Observations layout. Learn more.

Left ArrowRight Arrow

34.02893, -84.19858

Hourly Observations for March 23, 2016

Temp ( °F °C ) Dew Point ( °F °C ) Humidity (%) Winds ( mph kmh ) Pressure ( in mb ) Visibility ( mi km ) Precip ( " mm )
12:53 am 00:53 Clear 54 12.2 33 0.6 45 45 S 8 13 30.20 1023 10 16 0.00 0.00
1:53 am 01:53 Clear 52 11.1 34 1.1 50 50 S 7 11 30.19 1022 10 16 0.00 0.00
2:53 am 02:53 Clear 50 10 34 1.1 54 54 SSW 6 9 30.18 1022 10 16 0.00 0.00
3:53 am 03:53 Clear 50 10 34 1.1 54 54 S 3 6 30.17 1022 10 16 0.00 0.00
4:53 am 04:53 Clear 46 7.8 35 1.7 66 66 SW 5 7 30.19 1022 10 16 0.00 0.00
5:53 am 05:53 Clear 47 8.3 41 5 80 80 SW 9 15 30.18 1022 10 16 0.00 0.00
6:53 am 06:53 Clear 45 7.2 41 5 86 86 SW 6 9 30.19 1022 10 16 0.00 0.00
7:53 am 07:53 Mostly Sunny 46 7.8 42 5.6 86 86 WSW 3 6 30.22 1023 10 16 0.00 0.00
8:08 am 08:08 Mostly Cloudy 48 9 43 6 82 82 W 3 6 30.24 1024 10 16 0.00 0.00
8:53 am 08:53 Cloudy 50 10 43 6.1 77 77 W 3 6 30.24 1024 10 16 0.00 0.00
9:53 am 09:53 Mostly Cloudy 54 12.2 45 7.2 72 72 WNW 6 9 30.24 1024 10 16 0.00 0.00
10:13 am 10:13 Mostly Sunny 56 13.3 46 7.8 70 70 VRB 5 7 30.24 1024 10 16 0.00 0.00
10:53 am 10:53 Sunny 58 14.4 46 7.8 65 65 WSW 9 15 30.24 1024 10 16 0.00 0.00
11:53 am 11:53 Mostly Sunny 62 16.7 47 8.3 58 58 W 14 22 30.23 1024 10 16 0.00 0.00
12:53 pm 12:53 Mostly Cloudy 65 18.3 46 7.8 51 51 W 10 17 30.20 1023 10 16 0.00 0.00
1:53 pm 13:53 Partly Cloudy 68 20 46 7.8 45 45 W 12 19 30.17 1022 10 16 0.00 0.00
2:53 pm 14:53 Partly Cloudy 70 21.1 45 7.2 41 41 S 15 24 30.14 1021 10 16 0.00 0.00
3:53 pm 15:53 Mostly Sunny 72 22.2 46 7.8 40 40 SSW 12 19 30.11 1020 10 16 0.00 0.00
4:53 pm 16:53 Partly Cloudy 73 22.8 45 7.2 37 37 SSW 14 22 30.10 1019 10 16 0.00 0.00
5:53 pm 17:53 Sunny 71 21.7 45 7.2 39 39 SSW 16 26 30.10 1019 10 16 0.00 0.00
6:53 pm 18:53 Sunny 70 21.1 46 7.8 42 42 S 9 15 30.10 1019 10 16 0.00 0.00
7:53 pm 19:53 Clear 67 19.4 46 7.8 47 47 S 10 17 30.10 1019 10 16 0.00 0.00
8:53 pm 20:53 Clear 64 17.8 47 8.3 54 54 S 7 11 30.10 1019 10 16 0.00 0.00
9:53 pm 21:53 Mostly Clear 62 16.7 47 8.3 58 58 S 5 7 30.11 1020 10 16 0.00 0.00
10:53 pm 22:53 Mostly Cloudy 63 17.2 48 8.9 58 58 S 8 13 30.11 1020 10 16 0.00 0.00
11:53 pm 23:53 Cloudy 63 17.2 48 8.9 58 58 S 7 11 30.11 1020 10 16 0.00 0.00

Powered by AerisWeather